Helicity
424 437 396 335 300 288 284 275 244 217 206 179 123 81 75 54 45 53 85 105 144 162 165 178 173 179 189 201 197 188 167 155
427 423 406 388 337 295 264 241 193 173 184 147 78 29 -1 0 21 67 74 84 110 146 168 176 180 188 197 189 132 167 154 170
462 468 414 360 326 298 256 206 180 148 106 57 1 -37 -20 5 32 65 70 92 114 133 152 168 184 174 193 198 200 159 118 147
503 516 452 336 264 209 170 138 127 98 37 -20 -49 -38 -31 -11 3 -6 2 18 40 71 98 143 177 169 158 156 144 150 120 118
503 448 407 290 213 151 104 66 58 21 -16 -36 -58 -113 -114 -109 -37 -23 -43 -79 -58 1 44 75 104 145 141 131 134 137 129 118
509 433 292 209 156 108 49 27 -20 -21 -25 -47 -85 -84 -89 -55 -42 -20 -14 -26 -15 1 39 96 133 156 145 105 99 97 84 96
493 389 349 270 200 140 165 100 100 52 -10 -37 -26 -21 -25 2 29 41 20 4 21 39 90 115 120 111 113 95 57 52 49 48
519 486 320 171 153 151 135 112 85 64 70 52 42 24 34 49 45 43 31 27 29 70 96 101 74 55 50 33 49 70 77 87
438 368 246 231 174 132 112 103 107 100 76 51 52 39 32 17 24 36 33 38 34 28 60 78 65 82 93 88 55 42 20 26
468 358 313 266 191 129 116 116 128 114 69 43 28 23 23 32 54 77 76 70 59 46 41 27 47 33 0 -14 -20 11 30 44
440 384 325 287 193 184 184 141 79 124 75 48 48 41 35 49 72 81 90 96 85 62 32 32 22 0 -12 32 43 46 52 56
468 395 346 272 283 230 210 149 138 136 91 61 67 64 58 69 79 86 100 112 113 95 89 60 41 26 35 58 72 78 77 74
390 369 343 337 296 332 199 153 186 126 83 88 84 69 72 82 91 102 108 108 110 115 110 96 85 68 74 73 75 78 69 71
347 368 358 361 335 194 200 159 153 108 107 114 110 91 91 95 98 107 116 114 103 115 125 103 115 80 93 86 81 82 64 67
294 354 348 190 202 177 191 153 132 127 121 136 132 117 111 110 109 110 117 120 126 130 139 110 93 98 91 78 99 73 53 57
141 153 135 185 153 201 156 116 145 150 156 156 154 137 130 129 124 121 124 126 126 142 139 128 115 105 95 102 88 68 58 56
102 114 136 139 150 130 139 152 134 195 175 158 179 167 150 141 138 129 124 116 123 120 125 116 99 105 81 79 69 68 53 52
130 131 128 113 123 142 169 162 188 217 212 177 182 197 194 181 175 173 150 123 111 114 111 103 90 89 64 68 67 68 56 55
169 132 118 117 120 144 156 153 164 201 217 208 212 233 234 225 233 219 209 183 139 117 127 105 87 85 71 79 68 68 56 45
Wind_Speed
15 15 15 16 21 24 26 28 28 30 34 36 37 38 42 46 50 55 60 65 69 70 70 70 70 71 71 72 74 71 71 76
16 14 17 19 21 24 28 29 31 34 37 39 41 44 45 52 57 64 69 73 75 76 74 74 74 74 73 71 70 75 74 74
20 19 19 21 21 26 29 31 34 38 41 42 43 46 50 56 66 72 76 78 78 76 72 74 74 72 71 70 72 74 71 70
26 25 23 23 25 27 30 33 34 40 44 44 48 50 56 64 74 77 79 80 78 75 70 73 74 70 71 68 66 67 73 69
20 20 23 24 25 27 32 36 40 44 48 52 56 62 69 71 76 76 78 76 77 72 69 68 67 65 67 64 61 64 65 72
28 23 23 24 28 29 39 44 49 53 53 56 61 67 70 73 75 76 76 75 71 68 66 64 65 65 64 61 63 64 62 65
28 29 29 32 36 35 33 46 48 48 53 58 64 70 75 78 77 77 75 73 70 66 65 63 62 62 62 60 60 61 62 62
22 26 30 34 35 38 38 40 44 46 55 59 65 73 75 75 74 72 72 72 69 67 64 62 60 58 57 59 60 60 58 60
27 26 29 34 33 38 42 45 50 57 61 65 67 68 69 68 67 66 66 65 61 59 58 56 58 60 59 59 57 56 54 56
30 30 32 32 36 39 43 46 55 58 60 62 64 68 70 71 69 66 66 63 63 61 59 59 58 57 57 58 57 60 60 60
36 33 33 35 39 44 41 46 54 53 55 60 66 72 74 73 69 68 66 66 63 59 58 57 56 57 60 60 58 58 61 62
37 31 31 35 38 45 50 53 55 51 56 63 70 74 73 70 68 65 62 62 59 54 55 54 53 55 57 55 56 58 63 64
34 30 31 34 39 46 64 54 55 54 59 66 72 73 72 70 67 63 62 62 59 56 54 53 51 52 54 55 57 57 62 63
33 29 32 37 44 55 54 63 57 57 62 70 72 72 71 71 68 65 63 63 60 57 53 54 54 56 56 57 59 60 62 62
37 34 39 46 51 48 58 53 53 59 66 70 73 75 71 69 66 63 62 60 60 58 54 55 56 58 57 59 60 64 64 62
34 38 53 60 57 59 55 49 56 61 67 69 73 71 69 67 66 63 62 62 61 59 57 58 58 58 58 59 63 65 62 61
62 60 60 62 58 54 49 54 59 61 65 69 72 71 69 68 65 63 63 62 60 60 59 60 59 58 58 61 63 61 59 58
63 66 66 65 62 59 63 61 64 67 70 71 72 70 70 68 65 64 66 65 62 62 61 62 62 59 59 59 62 61 60 57
73 75 76 75 72 73 74 76 79 81 80 80 79 78 77 75 73 70 67 65 64 63 61 62 62 61 60 62 62 62 62 60
Wind_Direction
309 318 326 338 339 344 348 347 351 354 355 355 352 350 348 345 341 337 334 330 328 326 323 320 318 316 315 315 313 312 309 307
300 310 313 318 328 332 335 339 338 339 338 338 339 338 339 339 337 333 329 327 325 323 321 320 319 316 315 315 314 311 309 311
285 294 304 312 320 325 328 332 335 335 336 336 336 336 335 335 334 332 330 328 327 325 323 322 320 319 318 317 315 312 311 311
283 287 295 305 311 316 322 322 332 331 332 334 333 333 332 329 328 329 329 329 329 326 324 323 321 320 317 317 317 316 312 313
287 282 291 300 312 318 318 317 322 327 327 327 328 327 325 326 327 329 330 332 331 331 328 326 325 325 321 322 322 320 318 314
285 287 295 301 304 312 309 309 315 318 319 323 327 327 327 326 328 329 332 335 336 337 335 333 329 328 328 326 324 323 322 319
287 287 291 293 300 309 317 308 314 322 322 325 324 324 326 327 328 329 331 334 335 336 336 336 335 334 333 332 330 328 326 325
287 282 284 291 298 305 311 318 322 325 325 328 328 326 328 329 329 330 331 332 335 335 336 337 337 337 337 336 334 333 333 330
291 279 287 292 299 308 310 314 319 323 322 324 328 332 331 331 330 330 331 333 334 339 341 342 342 341 341 340 341 340 340 337
295 284 285 288 293 303 307 314 319 319 321 327 329 331 331 330 329 329 331 333 334 335 337 337 339 340 341 340 339 337 337 334
297 285 285 289 293 298 309 315 319 317 322 327 329 330 330 331 330 329 329 330 331 331 332 332 333 334 334 333 334 333 331 331
295 285 289 293 299 302 309 311 314 314 320 325 327 328 330 330 329 328 328 329 329 328 329 328 327 329 331 330 329 328 328 328
298 289 293 299 301 304 308 308 311 313 318 323 325 327 328 328 328 327 328 327 327 326 324 323 323 324 326 324 324 325 325 326
314 303 301 305 307 308 309 307 309 315 319 323 324 325 325 325 325 326 325 325 325 324 322 321 321 322 321 320 320 320 320 322
328 320 315 312 314 312 312 309 310 316 319 322 323 323 323 323 324 323 323 323 321 320 319 318 319 318 317 316 316 315 316 319
330 317 314 314 311 311 312 310 314 317 319 321 321 321 321 321 320 319 319 319 318 317 316 316 315 313 313 314 313 311 313 316
331 329 325 323 322 320 317 315 316 317 317 318 320 319 319 318 317 316 316 315 315 315 313 313 313 312 311 311 310 312 312 313
340 337 333 331 327 323 319 317 317 316 315 315 317 317 314 314 314 314 313 313 312 311 310 310 309 308 308 309 309 309 309 310
336 335 334 333 332 328 324 321 318 317 315 314 313 313 310 310 309 308 310 310 309 309 306 307 306 305 305 305 305 305 304 306